星链-4650 (STARLINK-4650 )

导读 | 星芒AI

STARLINK-4650 是 SpaceX Starlink 项目中的一颗低轨通信卫星,属于第 24 批部署的星链卫星群。该卫星于 2023 年发射,运行在约 550 公里的轨道高度,旨在为全球提供高速、低延迟的互联网服务。作为星链网络的一部分,STARLINK-4650 采用先进推进系统和激光通信技术,提升网络稳定性和数据传输效率,助力偏远地区互联网接入,推动全球数字连接。

基本信息
目录编号:
53611
目录名称:
STARLINK-4650
国际标识:
2022-104Z
轨道中心:
EARTH
卫星名称:
星链-4650
卫星全名:
星链-4650 (STARLINK-4650 )
卫星状态:
已陨落 最后检测时间 2025-08-15
发射日期:
2022-08-28 UTC
国别 :
美国 (US)
星等 :
--
轨道信息
数据来源 国际轨道数据
星历时间: 2025-08-15T14:16:44+0800
轨道信息已过期128天
半长轴: 6545.953km
偏心率: 0.0055899
轨道倾角: 53.152°
近地点辐角 357.479°
升交点赤经 339.880°
平近点角 82.047°
近地点: 131.226km
远地点: 204.41km
周期: 87.845分钟
每日圈数: 16.392436
详细信息
固有亮度:
5
最大亮度:
2.5
卫星平台:
Starlink v1.5
覆盖范围:
全球
运营商:
太空探索技术公司
运营商所在国:
美国
制造商(研发单位):
太空探索技术公司
制造商所在国:
美国
使用方式:
暂无
卫星简介
星链(Starlink)计划是由太空探索技术公司(SpaceX)提出的一个巨型低轨卫星互联网星座项目,计划在2019年至2024年间在太空搭建由约1.2万颗卫星组成的“星链”网络,其中1584颗将部署在地球上空550千米处的近地轨道,并从2020年开始工作。该卫星仍在工作。